Regional Weather Roundup
Issued by NWS

Home | Current Version | Previous Version | Graphics & Text | Print | Product List | Glossary On
Versions: 1 2 3 4 5 6 7 8 9 10 11 12 13 14 15 16 17 18 19 20 21 22 23 24 25 26 27
000
ASUS45 KTFX 300210
RWRMT
MONTANA REGIONAL WEATHER ROUNDUP
NATIONAL WEATHER SERVICE GREAT FALLS MT
800 PM MDT THU SEP 29 2016

NOTE: "FAIR" INDICATES FEW OR NO CLOUDS BELOW 12000 FEET WITH NO
SIGNIFICANT WEATHER AND/OR OBSTRUCTIONS TO VISIBILITY.

MTZ001>007-043-300300-
WEST OF THE DIVIDE

CITY           SKY/WX    TMP DP  RH WIND       PRES   REMARKS
KALISPELL      CLEAR     56  47  71 CALM      29.96S
MISSOULA       PTCLDY    70  44  39 VRB3      29.97S
BUTTE          TSTM      61  46  57 N13       30.15R
MULLAN PASS    PTCLDY    61  42  49 W3        30.13S
ANACONDA         N/A     70  37  30 N7G16     30.10R
DEER LODGE       N/A     70  39  32 W18G29    30.14R
EUREKA           N/A     57  45  62 CALM      29.97S
HAMILTON         N/A     72  43  35 S15       30.02R
LIBBY            N/A     63  50  63 SE5       29.94S
PLAINS           N/A     63  49  60 CALM      29.96R
RONAN            N/A     60  46  59 CALM      30.03S
$$

MTZ008-052>055-300300-
SOUTHWEST MONTANA

CITY           SKY/WX    TMP DP  RH WIND       PRES   REMARKS
BOZEMAN        CLOUDY    64  46  52 SE13      30.08R
DILLON         CLOUDY    66  39  37 S14       30.13R
W YELLOWSTONE  CLOUDY    55  41  58 SW5       30.30R
ENNIS          PTCLDY    64  45  48 S16       30.21R
THREE FORKS      N/A     63  63 100 CALM      30.07R
TWIN BRIDGES     N/A     65  40  39 CALM      30.10R
$$

MTZ009-010-012-014-046-048-049-054-300300-
EAST SLOPES AND CENTRAL MONTANA

CITY           SKY/WX    TMP DP  RH WIND       PRES   REMARKS
CUT BANK       PTCLDY    60  48  64 E9        30.06F
GREAT FALLS    CLEAR     63  47  55 N10       30.04R
MALMSTROM AFB  CLEAR     66  48  52 NW7G17    30.04R
HELENA         MOCLDY    73  42  32 SE3       30.02S
CHOTEAU          N/A     63  50  63 NE9       30.08S
CONRAD           N/A     57  51  80 NW1       30.09R
$$

MTZ011-013-016-021-045-047-050-051-300300-
NORTH CENTRAL MONTANA

CITY           SKY/WX    TMP DP  RH WIND       PRES   REMARKS
HAVRE          CLEAR     62  55  77 NE6       29.99S
LEWISTOWN      CLOUDY    65  48  54 S3        30.07S
N BAR RANCH      N/A     61  48  63 NW6       30.10S
CHINOOK          N/A     63  57  82 CALM      29.99R
$$

MTZ017>020-022>027-061-062-300300-
NORTHEAST MONTANA

CITY           SKY/WX    TMP DP  RH WIND       PRES   REMARKS
GLASGOW        CLEAR     66  49  54 SE9       30.00S
JORDAN           N/A     64  51  62 E3        30.01S
SIDNEY         CLEAR     68  47  46 E7        30.09S
WOLF POINT     CLEAR     65  49  56 NE8       30.03F
PLENTYWOOD       N/A     64  46  52 E14       30.10F
POPLAR           N/A     70  48  46 E10       30.05F
$$

MTZ028>42-056>058-300300-
SOUTHCENTRAL AND SOUTHEAST MONTANA

CITY           SKY/WX    TMP DP  RH WIND       PRES   REMARKS
BAKER          PTCLDY    65  47  52 SE15      30.11S
BILLINGS       CLOUDY    72  50  45 SE3       30.04S
LIVINGSTON     CLOUDY    65  44  46 VRB3      30.09S
MILES CITY     MOCLDY    75  48  38 SE7       30.01F
BIG TIMBER     CLEAR     66  45  45 SW8       30.12R
FORSYTH          N/A     68  54  60 CALM      30.00S
LAUREL           N/A     71  49  45 MISG      30.04
ROUNDUP          N/A     70  44  38 S2        29.96R
$$

REGIONAL REPORTS...DAKOTAS

CITY           SKY/WX    TMP DP  RH WIND       PRES   REMARKS
WILLISTON      CLEAR     65  44  46 SE9       30.13S
MINOT          CLEAR     59  46  62 SE12      30.22S
DICKINSON      CLEAR     60  41  49 SE17      30.15S
BEACH            N/A     64  45  48 SE14      30.14S
CROSBY           N/A     61  45  55 SE10      30.17S
WATFORD CITY     N/A     61  43  51 SE12      30.15S
BISMARCK       CLEAR     55  45  68 SE9       30.26R
GRAND FORKS    CLEAR     54  45  71 SE7       30.36S
FARGO          CLEAR     56  45  66 E8        30.37S
BUFFALO SD       N/A     69  42  37 SE14      30.07F
RAPID CITY     PTCLDY    65  44  46 SE7       30.17S
$$

REGIONAL REPORTS...WYOMING/IDAHO/WASHINGTON

CITY           SKY/WX    TMP DP  RH WIND       PRES   REMARKS
GILLETTE       CLOUDY    68  48  48 S12       30.15S
SHERIDAN       CLOUDY    61  52  72 W6        30.07S
BUFFALO WY     CLOUDY    69  44  40 SW18G25   30.14S
CODY           LGT RAIN  57  49  74 W12G22    30.22R
YELLOWSTONE LA   N/A     49  44  83 CALM      30.39F
IDAHO FALLS    CLEAR     65  48  54 SE7       30.18S
SALMON         PTCLDY    68  43  40 N13       30.13R
BOISE          PTCLDY    79  41  25 S15       29.96R
SPOKANE        MOCLDY    73  43  33 SW7       29.93R
$$

REGIONAL REPORTS...ALBERTA

CITY           SKY/WX    TMP DP  RH WIND       PRES   REMARKS
EDMONTON       CLOUDY    55  37  50 E7        30.11F
CALGARY        MOCLDY    54  43  66 SE7       30.08R
LETHBRIDGE     MOCLDY    55  48  76 NE3       30.05S
MEDICINE HAT   PTCLDY    59  50  72 N9        30.03S
WATERTON GATE    N/A     48  43  81 NE1         N/A
$$

REGIONAL REPORTS...SASKATCHEWAN

CITY           SKY/WX    TMP DP  RH WIND       PRES   REMARKS
SWIFT CURRENT  CLEAR     61  50  67 NE13      30.03S
REGINA         MOCLDY    63  46  55 SE20      30.10R
SASKATOON      PTCLDY    54  50  87 NE15      30.10F
CYPRESS HILLS    N/A     57  45  62 NE3         N/A
VAL MARIE        N/A     59  46  63 E1          N/A
ROCKGLEN         N/A     64  46  52 SE14        N/A
ASSINIBOIA       N/A     55  43  62 NE5         N/A
$$




USA.gov is the U.S. government's official web portal to all federal, state and local government web resources and services.